Location: Orange
(33.2833°S, 149.1000°E)
Time: 02:59:18
(UTC+11:00)

Envisat - Pass Details

Date: 05 October 2022
Orbit: 763 x 765 km, 98.2° (Epoch: 30 November)

Event Time Altitude Azimuth Distance (km) Brightness Sun altitude
Exits shadow 05:44:54 - 333° (NNW) 3,089 5.8 -11.4°
Reaches altitude 10° 05:47:32 10° 316° (NW) 2,300 5.0 -10.9°
Maximum altitude 05:50:54 18° 274° (W) 1,826 4.3 -10.2°
Drops below altitude 10° 05:54:20 10° 232° (SW) 2,320 5.1 -9.5°
Sets 05:57:24 0° 212° (SSW) 3,256 6.0 -8.8°
